Wind_Speed
11 9 12 13 14 17 18 18 17 17 17 16 13 13 15 12 12 16 14 19 20 15 13 17 17 15 13 11 12 11 11 11 10 12 11 11 11 10 11 10 10 8 7 9 11 12 14 14 15 16 16 16 16 16 15 14 11 8 7 7 6 5 5 5 4 3 3 3 4 6 7 9 11 12 12 12 14 15 16 17 18 19 18 17 18 19
12 12 15 17 18 18 20 19 17 19 21 17 13 12 13 13 12 15 15 21 19 14 13 17 14 14 14 12 12 11 10 9 10 10 10 12 11 8 10 11 9 5 6 10 11 12 14 14 15 16 15 15 15 15 15 13 12 11 8 7 6 4 4 3 2 3 3 5 6 8 9 9 10 11 12 12 14 14 15 16 17 18 18 17 18 19
13 14 18 20 19 18 18 19 18 20 21 16 12 10 10 12 12 13 17 22 18 11 12 16 11 11 12 10 10 10 8 6 9 10 7 8 9 11 13 10 7 6 7 9 10 11 14 15 15 15 14 14 15 14 14 13 12 12 10 9 7 5 4 3 4 5 6 6 7 7 8 9 10 10 12 12 13 13 15 15 15 16 16 17 19 19
12 13 18 19 18 19 19 19 19 18 16 14 12 10 10 13 12 11 14 21 18 11 12 16 11 9 10 9 9 10 8 6 8 9 10 13 12 14 12 6 5 7 7 7 10 11 13 15 15 14 13 14 14 14 13 12 12 11 9 8 6 4 3 2 3 4 4 4 5 6 7 8 9 10 11 12 12 14 14 14 15 15 16 17 19 19
13 13 17 19 20 21 20 19 19 14 12 14 16 13 11 14 16 13 11 17 18 13 15 15 11 7 9 10 9 9 8 7 6 8 13 14 12 14 14 7 3 6 6 8 10 10 12 15 14 14 13 13 14 13 12 12 11 10 8 7 5 3 2 1 0 0 1 3 4 5 6 7 8 10 11 12 13 13 13 13 14 14 14 16 18 19
15 15 18 21 21 22 21 17 18 15 10 13 16 17 13 15 20 16 13 13 12 11 15 13 9 6 10 12 11 9 9 10 7 7 10 11 12 15 13 8 5 5 6 9 11 10 12 15 14 14 14 14 14 12 12 11 10 9 8 6 5 3 2 3 3 3 2 4 5 6 7 7 8 9 10 10 10 11 11 12 13 13 13 13 16 18
12 17 19 21 21 22 21 16 18 19 11 10 13 17 18 17 20 16 15 12 9 9 13 14 9 6 9 12 13 12 11 13 10 8 10 9 9 12 11 9 9 9 8 10 11 11 12 14 15 15 15 16 15 13 12 11 10 9 9 7 6 4 3 4 4 4 4 5 6 6 7 8 9 10 10 9 9 9 10 10 11 12 13 13 14 16
13 20 20 21 22 19 17 14 17 20 13 9 13 17 20 19 19 17 17 12 9 9 12 16 12 7 8 11 15 16 14 13 11 10 12 10 10 13 12 11 12 11 10 10 10 11 12 14 15 14 14 15 15 14 14 12 11 11 10 9 8 7 5 5 5 5 6 6 8 8 8 9 10 10 10 10 10 10 9 10 10 11 12 12 12 13
15 19 20 22 20 15 15 15 17 19 14 11 14 17 19 18 18 14 16 11 10 10 10 14 14 8 7 10 15 17 16 14 12 11 13 13 12 12 12 12 12 11 11 11 10 11 12 14 15 14 14 15 15 15 15 13 12 12 12 11 10 9 9 9 8 8 8 9 10 11 11 11 11 10 11 11 10 10 10 9 10 10 11 11 12 12
14 17 18 20 17 13 15 17 18 19 14 14 16 16 17 18 16 13 14 11 11 10 10 14 16 9 6 10 13 14 14 13 10 10 12 12 12 11 11 11 11 11 11 11 11 12 14 14 14 14 14 14 14 15 14 14 14 13 13 13 12 11 12 13 13 12 12 12 12 13 13 13 13 13 13 13 12 11 10 9 9 10 10 10 11 12
15 15 16 16 14 14 15 17 19 19 16 17 17 14 14 15 12 10 11 10 8 8 12 17 18 13 8 8 10 10 11 14 11 10 11 12 12 11 10 10 10 10 10 10 10 12 14 14 14 14 14 13 14 13 13 13 13 13 14 14 13 13 14 15 15 15 15 15 15 15 16 16 16 15 15 15 14 13 12 11 9 8 8 9 10 11
17 16 14 13 15 16 16 18 17 17 19 17 13 9 10 10 8 9 9 9 6 7 13 18 19 17 10 7 11 10 11 17 15 12 13 13 12 11 10 9 9 9 9 9 9 10 12 12 12 13 13 12 12 12 12 12 11 11 12 12 12 12 14 15 16 16 16 17 17 17 17 17 17 17 16 15 14 14 13 12 11 9 8 9 10 11
16 15 14 15 19 20 16 14 14 15 17 15 12 9 10 8 6 8 9 8 7 8 14 17 17 16 9 5 11 14 17 18 14 14 15 14 12 11 10 9 8 8 9 9 8 9 9 9 10 11 12 12 12 11 10 10 10 10 10 11 11 12 13 13 14 15 16 17 17 18 18 18 18 17 16 16 15 15 14 13 12 10 9 10 11 11
12 14 18 18 15 16 15 12 12 13 15 14 12 10 10 9 7 8 9 8 8 9 13 16 15 11 5 4 3 11 19 17 15 16 15 14 13 12 11 9 8 8 8 8 8 8 8 9 10 11 11 11 11 11 10 10 10 10 10 11 11 11 12 12 13 14 15 16 17 17 18 18 18 17 18 17 16 16 15 13 12 10 10 11 12 11
13 12 16 17 12 14 18 16 14 13 13 13 13 12 11 9 7 7 9 9 10 11 12 14 9 2 4 6 9 13 17 17 17 16 15 13 12 12 11 9 9 9 8 8 8 8 9 10 11 11 11 11 10 11 11 10 10 10 10 11 11 11 12 13 13 13 14 15 16 16 17 17 17 17 18 17 17 17 16 14 14 13 14 15 15 14
15 12 14 17 14 18 20 17 16 15 13 11 12 12 10 11 9 5 6 7 5 7 8 7 3 4 5 8 11 14 15 16 16 15 15 13 12 11 10 9 8 8 8 8 8 8 10 11 11 11 10 10 10 10 9 9 10 9 8 9 11 14 15 15 15 14 13 14 14 14 15 16 17 17 18 18 18 18 17 17 16 16 17 17 17 17
13 11 15 18 16 20 21 18 18 16 11 9 11 12 11 14 11 4 5 4 2 3 4 5 5 5 4 6 10 13 14 15 14 15 15 13 12 11 9 8 8 8 8 8 8 8 10 10 10 10 10 10 9 9 9 9 9 9 10 12 14 15 15 15 15 14 14 14 14 13 15 16 16 17 18 18 19 20 19 18 17 16 16 15 15 17
11 9 15 21 20 20 20 20 20 17 13 9 9 12 11 12 11 5 5 5 2 5 4 8 10 9 5 3 7 13 13 13 13 14 14 13 12 10 9 9 8 8 8 8 8 9 10 10 10 9 9 9 9 9 9 9 9 10 11 11 12 13 15 14 14 14 14 15 15 15 16 16 16 17 18 18 18 20 20 18 16 15 15 14 13 15
11 8 12 20 20 18 18 18 17 16 18 14 10 12 10 8 10 7 5 6 7 8 4 9 13 10 6 6 10 14 15 14 14 14 14 13 12 10 10 10 9 9 8 7 7 8 8 9 9 9 8 9 9 9 9 9 10 11 11 8 12 15 15 14 14 14 14 14 15 15 16 16 16 15 17 17 18 19 19 18 18 16 15 15 14 14
10 7 8 16 19 17 15 13 11 13 18 17 12 12 9 7 8 7 5 6 7 8 6 7 9 6 5 10 16 18 18 17 16 14 13 13 12 10 9 9 9 8 7 7 7 7 8 9 9 9 9 9 9 9 9 10 10 11 11 11 17 18 16 14 14 13 13 14 15 15 16 16 16 15 16 17 19 19 19 19 20 19 18 17 16 17
7 6 6 13 17 14 11 11 13 14 15 13 11 12 10 7 7 8 8 7 8 7 6 6 6 4 3 8 17 20 19 18 17 14 13 13 12 11 10 9 9 8 8 7 7 6 8 9 10 9 10 10 10 10 10 10 11 11 12 14 19 20 16 15 15 13 14 16 16 16 16 16 15 15 16 17 18 19 20 20 20 20 20 20 19 19
5 5 6 9 13 12 12 15 17 18 17 14 11 11 12 10 9 10 9 9 8 7 6 6 5 4 2 0 10 18 18 17 18 16 13 12 13 11 10 10 9 9 8 8 7 7 7 9 9 10 10 10 10 10 10 11 12 13 15 17 19 18 16 15 16 15 15 17 17 17 17 16 15 16 17 18 18 18 20 21 21 21 21 21 21 20
3 3 6 8 10 13 16 18 18 19 19 17 12 12 12 11 9 8 7 8 8 8 8 6 4 4 4 5 4 11 14 16 17 17 15 12 13 12 11 11 10 9 8 7 7 7 7 8 9 10 11 10 10 11 11 12 12 13 14 15 15 16 16 16 17 17 16 16 17 18 18 16 16 16 17 18 19 19 20 20 20 21 20 20 21 22
3 4 7 7 8 11 16 18 17 18 16 14 14 13 11 11 11 9 5 4 5 7 8 3 3 3 4 7 6 11 14 16 15 15 15 13 11 12 12 11 10 9 9 8 7 7 8 9 9 10 10 10 11 11 11 12 12 13 14 13 14 16 17 16 16 16 17 17 17 18 18 18 19 19 19 20 20 20 21 20 20 20 20 20 21 22
4 6 9 8 7 9 11 13 14 15 13 10 12 13 15 16 16 11 6 3 2 6 7 2 4 4 4 5 9 15 17 16 14 14 14 13 11 11 11 10 10 10 9 9 8 9 9 9 9 10 10 11 11 11 11 12 12 13 14 14 15 16 16 15 16 17 18 19 18 18 19 19 20 21 22 22 21 21 21 21 21 20 20 20 22 23
6 6 8 8 8 9 10 10 10 12 11 10 13 18 20 19 16 10 6 4 3 6 7 4 7 7 7 7 11 17 17 15 15 14 13 12 12 11 11 10 10 10 10 9 9 9 9 10 10 11 11 11 11 11 12 13 13 13 14 15 15 15 15 16 17 18 19 20 20 20 21 21 22 22 23 22 22 22 22 22 22 22 21 21 22 24
5 6 8 10 10 9 10 12 13 14 13 12 17 21 20 17 16 11 5 5 6 5 2 7 14 15 11 11 13 16 16 16 15 14 13 12 12 12 11 11 10 9 9 9 9 9 10 10 11 12 12 12 12 13 14 14 14 14 15 15 15 16 16 17 17 18 18 19 20 20 21 22 22 23 23 23 22 22 22 22 22 22 22 22 24 25
4 7 10 11 10 8 11 16 19 19 18 18 19 21 19 17 16 11 6 6 7 4 1 7 19 20 15 14 17 17 16 16 15 14 13 12 12 12 11 12 11 10 10 10 9 10 10 11 11 12 12 13 13 13 14 14 14 15 15 16 17 18 18 18 17 18 18 18 20 21 21 22 22 23 23 23 23 23 23 23 22 23 22 22 24 25
5 6 6 6 8 7 10 15 19 21 19 17 16 15 16 17 17 12 6 5 3 4 6 11 18 19 15 13 16 16 15 15 15 14 13 12 13 13 12 13 13 11 11 11 10 10 10 10 10 11 12 13 13 14 14 14 15 15 16 17 17 18 18 17 17 19 19 19 20 21 21 21 22 23 23 23 23 23 23 23 22 23 23 23 24 24
5 5 7 5 7 6 11 15 18 19 17 17 17 15 15 17 10 1 5 11 14 14 16 18 18 15 11 10 12 11 11 12 12 13 13 14 14 14 13 14 13 12 11 11 10 10 9 9 10 11 13 13 14 15 15 15 16 16 17 17 17 17 16 15 17 19 19 19 20 21 21 21 22 23 23 23 23 23 24 24 23 24 24 24 25 25
2 3 6 6 3 3 11 12 13 15 16 17 14 6 3 7 10 14 14 15 17 17 20 22 18 12 8 9 11 11 10 12 13 14 14 13 14 15 14 13 13 12 11 10 10 9 9 9 10 12 13 14 15 15 15 15 16 16 17 17 17 16 15 17 20 20 19 19 20 21 21 21 22 23 23 23 23 23 23 23 24 24 24 24 26 25
1 1 2 5 4 5 6 3 5 6 9 6 6 11 12 9 12 13 11 12 16 20 20 18 13 9 9 11 12 11 12 14 14 14 12 10 12 14 13 13 13 11 11 10 10 10 9 9 11 13 14 14 15 16 16 16 16 16 16 17 17 15 16 20 21 19 19 20 20 20 20 20 21 22 23 23 24 23 23 24 24 24 24 24 25 25
6 4 1 4 4 6 5 7 7 1 8 8 8 9 10 13 13 12 12 12 14 16 13 9 9 10 13 14 14 13 12 12 11 10 9 9 11 13 13 13 12 11 10 10 9 9 9 10 11 12 11 12 14 15 15 14 15 16 16 17 17 16 17 20 20 19 20 20 19 20 20 20 21 21 22 23 24 24 24 24 25 24 24 24 25 25
8 7 2 3 4 4 8 7 3 2 7 4 4 5 6 12 13 13 14 12 11 10 9 11 14 15 14 14 16 14 10 9 9 7 7 8 9 11 12 11 11 10 10 9 9 10 10 10 10 10 10 13 14 13 11 9 12 13 12 13 15 17 19 20 19 19 19 19 20 20 20 20 21 21 22 23 23 24 25 25 25 25 24 24 25 25
8 7 1 1 2 2 6 5 4 2 2 2 4 6 12 16 16 17 16 14 13 14 17 19 19 17 15 14 15 15 11 10 10 8 7 7 7 10 11 10 10 10 9 9 9 9 8 8 9 12 15 17 16 15 14 15 16 16 16 14 16 18 19 19 18 19 19 19 20 20 21 21 21 21 22 22 23 23 24 25 25 26 26 25 25 25
7 7 3 2 1 3 4 3 4 3 1 0 4 10 15 15 12 12 13 13 11 12 16 20 19 17 18 17 16 15 14 12 11 8 7 6 6 8 9 9 9 9 8 9 8 8 9 11 13 16 16 16 15 15 16 20 21 21 21 20 19 19 19 18 18 18 18 19 20 21 21 21 21 21 22 22 23 23 24 25 25 25 25 25 26 26
9 6 5 3 0 3 4 1 2 3 3 3 6 7 8 7 5 7 8 8 8 10 14 18 19 19 18 17 17 17 15 13 10 7 5 5 6 8 9 9 10 10 9 10 10 11 14 15 15 16 15 14 14 14 15 16 16 15 16 17 17 17 17 18 17 17 18 20 20 21 22 22 22 22 22 22 22 22 22 23 24 24 24 23 25 26
11 7 5 5 3 4 5 3 2 3 2 4 6 6 4 6 9 11 9 5 6 10 13 15 17 18 17 16 17 16 12 9 8 5 4 5 6 8 9 10 12 12 11 11 11 12 13 14 14 14 13 13 13 14 14 15 14 14 14 15 15 16 17 17 16 17 18 19 20 20 21 21 22 23 23 24 25 24 23 23 23 23 23 23 23 24
13 7 3 4 5 6 6 4 4 2 1 3 8 8 5 6 9 10 6 3 7 11 12 14 16 16 16 16 15 12 8 6 5 6 7 8 8 9 9 10 12 12 12 12 12 12 12 12 13 13 12 13 13 13 14 14 14 14 14 15 15 16 16 17 16 16 17 17 18 19 20 21 21 22 23 23 25 26 25 23 23 23 23 23 22 22
9 6 3 4 5 6 5 4 4 3 3 4 9 8 6 5 5 5 3 4 11 13 13 14 16 14 14 15 11 7 3 5 7 9 11 12 12 12 11 11 12 13 12 12 12 12 12 12 12 13 13 13 13 13 13 13 14 14 15 15 16 16 17 17 16 16 16 16 17 19 21 22 22 22 22 22 24 26 26 24 24 24 23 22 22 22
4 3 5 5 5 6 6 5 4 3 3 4 7 7 5 4 4 5 2 6 13 15 14 14 15 15 13 11 7 2 4 9 12 13 14 14 13 13 13 14 14 13 13 13 12 12 13 12 12 13 14 14 14 14 13 13 13 14 15 15 15 16 17 17 17 17 17 17 18 20 23 24 23 22 24 24 26 28 28 26 25 25 24 23 23 23
2 3 5 4 3 4 5 5 5 4 1 1 4 5 2 2 3 2 5 10 14 15 15 14 14 14 11 8 7 8 12 16 17 16 15 14 13 13 14 15 15 14 14 13 13 13 13 12 12 14 14 14 14 14 13 12 13 15 15 15 15 15 15 16 17 18 18 18 19 20 22 24 23 23 23 24 26 28 28 27 26 26 25 24 24 24
2 2 3 2 1 3 5 4 4 4 1 2 2 4 2 1 4 7 9 12 14 14 15 14 12 11 11 12 13 15 17 18 17 15 15 14 13 14 15 15 15 15 14 14 14 13 13 12 13 13 13 14 14 13 12 13 14 15 15 15 14 14 14 15 16 16 17 18 18 19 19 21 23 23 23 23 24 26 27 27 27 27 26 25 24 24
5 3 2 2 3 1 4 3 3 4 4 1 2 4 5 6 9 10 11 12 13 13 13 11 11 12 14 16 16 16 17 18 17 16 15 14 13 15 16 15 15 15 14 14 14 13 13 13 12 13 14 14 12 12 12 14 15 15 15 15 14 14 15 15 15 15 16 16 17 18 18 18 20 22 22 22 22 22 25 26 25 25 26 25 24 24
4 5 6 5 4 4 5 5 5 6 6 6 7 9 11 13 12 12 12 12 12 11 10 10 12 14 16 17 18 17 16 16 16 16 15 13 13 15 16 16 15 14 14 14 14 13 13 13 13 14 14 12 11 12 13 15 15 14 14 14 14 15 15 15 14 14 14 15 15 16 17 16 17 20 21 21 21 21 21 23 24 23 24 24 24 23
8 9 9 8 8 8 7 6 7 9 9 10 10 11 12 12 12 13 14 13 11 11 11 11 13 16 16 17 17 16 16 17 17 16 15 14 14 15 16 16 15 15 15 15 15 14 13 12 13 14 12 10 12 14 14 14 13 12 12 14 15 15 14 13 14 14 14 14 14 15 15 14 14 16 18 19 20 20 19 20 21 22 22 23 23 23
10 10 9 8 8 7 6 6 9 10 10 12 12 12 13 13 11 11 12 12 12 13 13 14 15 16 16 16 16 16 17 17 17 16 14 13 14 16 16 16 15 15 15 15 15 15 12 12 14 13 11 12 13 13 13 13 12 11 13 14 13 12 12 12 12 12 13 13 13 14 15 13 12 13 15 17 18 18 17 17 19 21 22 23 23 23
8 9 9 8 8 8 8 9 10 11 12 12 11 11 12 12 12 12 12 13 14 16 16 17 17 16 14 15 16 18 18 16 16 16 14 13 14 16 16 16 16 15 15 15 15 14 12 12 13 12 11 14 14 12 13 13 12 12 15 14 11 11 11 10 11 12 13 13 12 12 13 13 11 10 11 13 17 18 17 15 15 19 22 24 25 24
8 8 8 10 11 10 9 11 12 12 12 11 11 11 11 12 14 15 16 16 18 18 18 17 16 15 16 17 17 17 17 16 16 17 15 13 14 16 17 17 16 15 15 15 14 13 13 13 12 11 12 14 13 12 13 13 12 13 14 13 12 13 12 10 11 13 14 13 12 12 12 13 13 11 10 10 11 14 16 15 13 14 18 21 24 26
8 9 9 10 9 7 9 11 11 9 9 9 11 13 13 14 16 17 18 18 18 18 19 18 17 17 19 20 19 16 15 15 17 18 16 15 16 18 17 17 16 15 14 14 14 14 14 12 11 13 13 12 11 12 13 12 12 11 11 12 12 14 16 16 14 13 13 13 14 14 13 12 13 14 13 10 8 8 10 12 13 13 14 16 19 23
6 5 5 6 7 9 13 13 10 9 10 11 13 15 14 14 16 17 17 18 17 17 18 18 18 18 17 19 21 19 16 16 19 19 18 17 18 18 17 17 17 15 14 14 13 13 13 13 14 16 13 10 10 11 11 11 11 11 11 11 12 13 15 17 16 14 13 14 14 14 15 16 16 15 14 12 11 9 7 6 8 10 11 12 14 16
Wind_Direction
199 202 204 208 208 204 211 218 219 227 230 222 208 209 224 223 221 225 195 165 185 201 193 211 216 187 174 181 180 177 186 195 171 151 161 171 173 166 155 142 123 117 117 105 98 96 92 87 83 79 79 80 77 78 83 90 93 93 100 106 106 119 136 135 133 135 154 168 183 202 215 227 237 238 230 231 238 240 245 250 251 250 248 248 242 234
198 210 212 208 210 207 209 216 219 230 240 238 219 208 219 225 225 220 181 158 184 203 195 210 206 172 174 186 178 170 184 186 161 163 179 176 170 140 110 96 84 87 102 97 87 83 85 84 79 76 75 75 75 74 73 76 85 89 94 99 97 107 108 103 141 182 199 205 207 209 214 221 230 236 234 234 239 243 246 249 249 249 248 248 243 236
203 214 212 207 210 211 210 213 216 228 239 246 236 212 214 225 223 213 176 160 182 204 194 197 182 155 169 175 158 163 183 164 154 174 170 145 130 99 87 78 69 67 67 76 80 79 82 82 81 79 76 75 74 73 72 70 74 78 83 91 98 114 123 146 189 200 207 211 214 217 222 227 232 239 241 242 244 242 243 246 246 245 245 245 242 238
205 212 210 205 207 211 213 210 212 224 233 243 245 220 211 220 220 212 180 167 178 199 200 184 162 146 158 159 160 170 170 145 163 168 108 90 102 105 104 102 95 94 84 81 83 79 80 80 79 79 77 75 73 71 71 68 68 68 68 73 81 92 112 157 187 190 198 220 225 218 226 237 243 251 252 253 252 246 245 248 250 248 245 244 244 242
210 204 203 206 205 208 215 210 207 219 227 232 243 238 214 208 222 222 181 168 173 198 218 188 154 157 168 169 170 162 150 137 153 150 108 95 106 109 106 105 86 98 105 97 88 82 83 81 77 78 78 76 73 69 67 66 66 69 69 70 73 70 48 40 353 288 236 256 252 229 232 238 241 249 248 246 250 250 247 250 256 256 253 253 250 245
213 201 195 206 206 205 213 211 205 213 221 224 234 243 227 203 220 217 170 165 174 198 216 182 148 168 176 179 170 153 160 152 137 135 119 110 116 111 108 119 125 117 109 97 93 90 88 85 80 74 70 69 69 66 65 66 65 66 67 67 70 74 32 20 359 337 316 280 273 261 257 253 253 259 254 250 258 262 255 255 259 260 262 260 252 245
211 202 193 203 206 203 211 212 205 208 218 223 215 233 239 218 218 202 160 171 194 201 196 170 167 178 175 190 174 157 167 159 155 158 136 116 114 112 114 128 128 119 106 94 88 81 78 76 72 64 57 58 58 60 65 64 60 56 52 51 50 54 37 10 351 341 333 298 288 287 285 285 284 283 283 284 290 286 275 270 267 266 267 261 249 242
205 203 193 201 206 200 209 213 203 204 214 220 200 220 239 230 220 193 162 180 204 207 192 172 179 181 178 196 174 167 175 159 160 164 139 116 97 95 101 107 106 100 94 88 80 72 68 67 68 64 56 54 50 50 52 49 50 46 40 38 34 36 29 5 351 342 336 318 311 313 309 303 297 293 296 302 302 295 287 283 281 276 273 267 252 240
201 206 194 197 205 201 206 210 201 202 215 221 203 215 234 236 234 198 162 182 203 209 212 186 185 189 191 190 171 174 179 161 156 151 131 118 104 96 96 95 91 89 86 84 81 74 71 68 68 66 60 55 48 44 41 37 40 39 35 32 28 27 19 6 355 344 339 330 320 315 312 312 313 310 308 307 304 301 298 292 289 283 280 277 267 254
197 209 201 194 204 206 203 206 206 201 209 225 212 208 225 237 243 212 172 182 199 209 225 203 192 196 198 184 174 179 178 163 152 136 120 114 110 103 99 96 90 89 84 81 81 78 75 73 69 68 65 58 49 43 37 33 33 30 27 24 23 21 11 4 360 353 351 347 337 329 328 328 328 324 316 311 307 308 309 302 295 288 286 287 281 272
191 205 215 199 200 209 201 203 213 202 198 226 223 203 217 232 243 230 191 181 195 211 226 216 202 200 203 182 180 189 171 153 140 126 121 116 112 106 99 93 87 86 86 85 84 81 79 77 73 69 65 59 52 44 37 32 28 25 22 17 17 14 5 1 358 355 355 355 353 349 347 345 340 334 325 317 313 315 317 310 301 291 286 288 285 279
195 197 215 201 193 206 205 201 210 201 194 220 233 204 208 223 239 234 195 179 198 210 218 216 207 210 217 185 184 185 139 132 136 135 133 126 118 109 96 90 91 90 91 90 86 83 81 77 74 70 64 58 52 45 39 32 26 25 23 16 13 14 7 360 356 355 354 354 356 354 352 350 346 341 334 326 319 316 316 312 307 301 288 286 287 280
202 194 206 203 193 200 204 196 203 199 192 214 231 209 203 207 223 217 185 185 210 216 218 209 201 212 217 167 180 170 134 128 139 139 134 130 121 109 98 94 95 93 91 89 86 85 83 78 73 69 65 59 51 46 41 34 30 26 23 18 16 18 13 4 359 357 355 353 354 354 353 350 345 341 338 334 325 318 315 312 312 309 292 282 283 283
202 194 203 206 195 196 201 194 197 196 193 208 218 207 201 198 205 197 181 193 209 220 224 207 197 207 186 79 68 134 128 126 132 131 126 122 116 108 103 101 95 91 89 88 88 86 85 82 75 66 61 57 50 44 40 38 34 25 20 18 17 18 14 7 4 1 359 356 354 353 354 350 345 342 339 335 331 325 317 311 313 314 302 294 294 293
200 195 197 197 180 188 207 208 199 196 199 207 211 209 205 204 210 195 185 197 201 209 216 202 198 203 125 97 60 87 106 108 113 117 114 110 111 110 107 106 100 96 98 94 90 85 79 79 75 69 63 55 47 41 37 37 36 30 21 17 17 18 16 13 9 5 1 358 354 353 353 351 347 343 338 334 333 330 322 316 316 314 308 302 296 294
205 200 191 194 184 185 206 216 201 193 200 205 210 211 204 207 214 202 210 221 208 208 204 181 158 41 88 107 90 89 97 104 110 113 112 110 112 112 108 109 108 104 103 96 89 83 77 73 70 70 66 58 50 41 35 37 38 28 16 22 25 22 22 17 9 5 2 358 356 356 355 352 348 343 338 334 333 332 327 321 318 315 311 302 291 289
203 195 183 195 202 193 200 215 207 196 196 198 210 211 201 209 212 191 222 249 329 240 196 114 105 102 107 113 111 111 108 112 117 114 114 115 115 115 112 112 111 107 104 96 89 82 74 67 62 60 59 58 54 44 38 40 40 26 21 34 33 24 22 18 9 5 1 359 1 1 356 351 347 343 338 335 335 334 331 328 322 316 314 309 299 295
205 192 176 190 206 199 196 214 217 206 198 198 206 202 198 216 217 194 202 208 212 236 193 121 134 148 153 158 138 132 125 124 125 119 118 122 121 119 117 119 114 106 102 93 86 79 71 67 63 58 55 55 51 45 39 36 40 32 23 37 48 35 26 20 13 7 2 4 5 359 353 351 348 344 339 335 336 336 335 335 330 322 319 318 313 306
214 202 175 188 202 193 190 213 221 204 204 215 206 190 194 217 213 193 197 204 202 220 192 132 146 165 172 165 157 152 144 137 133 130 130 130 128 125 124 124 115 105 98 87 81 75 69 68 65 61 58 55 52 50 45 38 39 30 11 30 62 50 33 23 16 11 10 10 5 356 352 353 350 346 341 338 338 339 339 339 338 334 330 325 321 318
216 214 178 188 198 189 183 208 218 194 202 219 211 195 206 224 214 196 193 206 208 211 197 151 157 183 176 161 166 165 154 145 142 140 138 132 130 129 126 124 114 106 98 88 82 75 73 72 68 64 61 59 55 51 49 44 42 31 15 34 55 47 33 25 17 16 20 16 9 3 357 354 351 348 345 343 342 343 342 342 342 340 338 333 328 326
213 215 183 187 197 194 185 203 213 195 192 207 202 195 207 218 221 214 201 206 218 216 196 170 169 171 145 162 170 166 155 147 143 140 136 131 128 127 124 121 113 105 97 88 83 77 76 75 73 71 67 61 55 50 49 46 43 31 14 27 45 40 30 22 13 16 26 20 13 10 3 358 354 352 350 348 349 349 346 344 342 339 340 340 336 331
203 200 180 184 193 197 196 202 210 203 194 201 205 199 204 210 215 215 206 203 214 223 209 189 163 126 53 319 167 159 154 147 140 135 132 129 127 124 121 116 108 102 95 88 88 85 81 79 76 74 70 64 56 49 49 47 42 33 18 21 35 35 26 19 11 12 25 22 15 12 8 3 360 357 354 353 354 353 351 347 344 341 340 341 338 334
198 191 176 188 195 198 198 198 211 213 199 198 211 213 209 210 216 217 211 201 206 222 220 196 143 105 40 15 112 140 140 135 132 130 128 128 126 122 117 109 102 99 97 95 98 95 90 85 80 75 71 66 59 50 47 47 43 38 31 26 30 31 27 20 11 8 18 23 19 15 9 5 3 359 359 1 358 355 355 352 348 346 344 342 338 333
184 182 168 187 204 207 203 195 207 221 212 199 205 215 216 211 216 224 229 204 197 220 220 168 107 113 51 40 91 117 118 122 126 126 125 125 124 119 113 109 106 108 108 108 106 97 90 85 79 74 68 63 60 52 47 48 44 40 36 31 31 34 30 20 11 10 14 18 19 16 12 9 4 0 5 9 2 357 357 354 351 350 347 345 341 335
179 183 169 183 193 203 205 189 194 217 225 212 202 214 224 215 211 218 228 221 208 226 221 139 96 138 103 78 114 119 119 125 126 126 126 123 122 117 113 114 116 117 114 110 104 95 88 83 77 73 66 59 58 54 50 49 45 41 38 32 32 34 29 18 13 16 16 14 14 15 13 12 8 6 9 10 4 359 359 356 355 354 352 351 348 343
175 179 174 188 188 190 197 185 187 204 213 212 203 211 221 219 216 214 199 191 202 220 217 153 112 125 116 110 123 124 126 128 127 128 127 122 121 120 120 123 121 117 114 109 102 94 87 83 79 73 67 61 56 53 52 48 42 41 38 33 31 32 29 20 15 18 18 14 12 11 11 12 11 9 11 9 6 4 1 359 358 357 356 355 353 353
168 183 191 207 203 194 201 196 192 197 204 207 205 207 214 223 232 228 200 198 199 197 195 128 130 135 140 142 138 133 130 128 129 129 125 122 123 124 126 125 122 119 115 108 100 95 91 85 77 68 62 59 54 50 50 48 43 39 36 30 27 30 29 23 18 20 18 15 14 11 9 11 11 10 11 10 9 7 3 2 1 358 358 359 358 359
175 191 191 211 216 212 219 205 191 195 204 205 205 205 206 216 231 227 193 198 205 190 125 141 141 142 153 154 142 137 135 132 131 129 127 129 129 128 128 125 123 120 113 106 100 94 90 81 71 62 57 55 53 50 48 49 44 39 37 30 25 26 26 20 19 19 17 16 17 13 10 12 12 11 11 11 10 9 6 5 3 1 1 1 2 3
196 191 166 215 226 224 246 226 200 197 202 206 212 207 196 210 235 241 203 167 146 127 145 154 143 135 140 142 133 133 135 130 129 130 131 133 131 131 131 125 122 118 110 104 97 89 80 73 67 61 56 52 52 50 48 49 45 38 37 33 26 26 23 19 21 21 17 18 18 14 11 12 14 12 11 11 12 11 9 8 6 5 4 5 5 4
211 172 141 195 211 228 269 249 213 197 192 201 216 214 197 199 213 271 93 102 99 111 128 130 123 116 116 116 114 117 115 115 122 129 132 135 134 132 128 122 119 113 103 95 90 85 75 69 67 62 57 52 50 48 44 44 43 37 35 33 29 26 18 19 27 25 20 18 16 13 12 12 13 13 13 13 13 12 12 11 9 8 8 8 7 6
233 152 154 165 152 252 264 251 223 207 199 198 206 225 219 164 116 87 88 98 103 115 123 118 112 108 102 96 96 100 106 115 125 131 133 135 132 128 123 118 114 106 99 94 91 86 75 67 64 61 58 52 49 48 44 42 42 39 36 33 30 22 15 24 32 27 21 19 15 13 13 12 13 13 14 15 14 14 14 13 13 12 10 9 8 7
147 118 184 156 142 228 240 327 323 227 192 157 71 32 29 64 91 92 98 110 118 124 125 121 121 128 125 116 109 112 121 126 128 130 130 129 128 125 121 116 111 104 98 94 88 82 75 67 61 59 59 54 49 47 43 41 41 38 37 37 29 16 20 34 35 28 24 19 14 14 15 15 15 15 16 15 14 15 14 13 14 13 11 10 8 8
142 133 189 156 176 205 137 53 347 216 124 81 41 18 34 63 73 73 76 91 117 129 134 136 137 135 131 127 125 125 125 124 122 124 125 125 124 121 115 111 108 100 92 89 86 81 72 65 62 61 63 63 59 53 48 49 50 41 36 38 28 13 24 40 35 27 26 20 15 17 17 17 17 16 18 17 15 15 14 14 15 12 11 10 9 11
143 142 178 164 190 192 115 97 285 213 123 99 335 338 52 72 71 76 75 71 81 92 95 107 121 129 132 131 129 126 119 109 107 107 111 116 118 116 112 109 105 99 93 87 83 77 72 71 68 60 54 55 56 52 44 54 71 62 45 46 42 26 29 40 35 28 28 22 20 22 20 21 21 19 19 18 16 17 16 16 16 13 12 11 10 12
149 143 141 59 170 140 95 120 197 180 137 279 341 52 93 90 79 78 75 67 73 86 95 107 122 132 130 125 123 117 106 93 85 79 82 94 108 113 111 108 102 99 96 91 88 86 82 76 67 54 45 41 42 36 19 13 30 37 27 35 52 44 36 38 35 31 30 25 25 25 22 23 22 19 20 18 16 18 18 18 19 16 14 13 12 13
157 146 117 37 59 106 107 175 180 129 86 301 82 94 104 103 95 84 68 61 77 99 110 118 127 129 123 120 119 113 107 97 81 63 60 68 87 102 107 109 105 103 104 103 103 99 84 66 58 56 51 43 40 40 27 17 21 27 21 24 40 44 40 40 37 32 30 27 26 26 24 23 22 19 20 18 17 18 17 17 19 18 16 16 15 14
162 159 138 125 114 121 116 97 110 128 150 139 128 131 122 107 110 107 83 72 90 109 118 122 125 126 124 122 121 120 116 103 86 69 61 73 97 108 112 111 105 101 98 89 77 70 68 64 61 59 56 51 47 46 43 34 32 35 31 30 36 41 43 43 37 32 30 26 25 27 25 24 22 20 17 16 17 18 17 17 16 14 15 17 18 16
166 168 160 157 157 135 123 102 105 149 165 143 155 171 139 92 98 108 104 94 109 117 121 124 127 130 131 129 132 137 129 103 92 103 116 118 118 112 108 103 98 96 96 92 81 72 70 70 69 66 63 61 57 53 51 48 43 42 41 38 38 41 44 44 38 34 31 26 24 27 27 25 25 23 20 18 17 14 14 17 16 14 15 17 18 17
170 151 160 170 155 149 149 143 133 112 352 148 153 155 135 117 124 125 117 134 146 138 136 136 136 138 139 140 147 156 147 114 117 141 144 137 127 118 113 107 103 104 103 99 92 85 82 80 78 76 72 67 64 62 60 57 53 49 46 41 37 38 43 45 42 38 34 30 28 28 28 28 29 29 26 25 24 19 15 14 14 15 18 20 18 17
164 130 163 190 170 155 138 108 109 75 30 114 146 152 145 138 160 183 203 176 160 154 150 147 145 143 145 148 158 175 164 134 143 147 146 142 134 128 125 120 116 116 109 99 94 92 92 89 85 83 78 72 68 65 62 62 61 56 51 46 40 35 35 40 42 41 38 34 32 32 31 29 30 30 27 27 29 25 18 15 14 14 18 21 19 19
113 118 165 178 173 153 127 99 108 95 68 116 146 154 152 155 191 218 201 142 148 151 151 150 147 146 149 154 161 143 87 107 127 136 139 138 134 130 127 123 119 115 107 103 103 98 93 90 87 85 80 75 71 66 62 64 66 63 58 52 45 37 31 32 36 38 37 35 34 36 34 30 28 27 25 29 33 27 19 17 16 15 17 20 19 18
111 153 160 169 181 149 116 108 117 108 19 249 119 99 90 209 194 147 101 122 137 144 145 145 145 146 145 133 115 104 103 111 123 131 134 134 131 127 125 123 120 115 111 110 107 101 99 97 91 84 77 73 70 67 64 63 63 65 63 58 52 44 35 33 34 36 36 35 36 42 42 36 33 31 29 33 37 32 25 23 21 18 18 20 19 17
42 89 125 113 26 98 106 109 118 117 175 241 135 94 21 311 128 115 114 123 130 135 140 140 137 135 127 112 108 113 117 120 125 130 131 130 129 127 128 129 126 121 119 115 110 106 103 96 87 81 76 71 67 64 62 60 61 64 65 64 62 57 47 41 37 37 38 37 36 40 42 39 37 35 34 37 39 36 30 28 27 25 23 22 21 19
8 2 120 76 350 60 124 109 84 103 112 100 95 95 83 92 115 123 124 126 128 132 134 130 125 123 120 118 119 122 123 124 128 132 131 131 131 131 132 129 123 120 120 117 113 111 104 96 91 86 78 71 68 66 62 60 60 60 60 60 60 58 55 50 42 39 41 40 39 38 38 39 37 33 31 34 39 38 33 29 29 28 26 25 24 22
43 64 90 77 39 54 85 84 81 92 95 82 79 93 101 106 117 124 124 125 127 127 124 122 123 123 121 123 125 125 126 128 130 132 131 129 130 130 127 122 119 120 119 111 105 102 99 96 93 86 82 79 74 67 61 60 61 60 60 62 60 55 53 51 48 45 42 42 43 38 36 41 42 35 30 31 36 40 36 31 29 29 27 26 26 24
133 119 98 96 100 85 70 78 93 94 96 97 94 97 103 108 116 123 123 123 125 127 126 125 125 124 126 128 127 126 129 131 129 130 130 129 129 127 125 123 125 125 121 113 107 103 101 98 92 85 83 81 74 68 64 62 63 63 63 64 63 59 55 52 52 50 43 42 45 40 38 47 51 43 38 37 36 39 39 34 32 32 29 26 25 23
139 125 107 115 126 110 87 99 106 103 106 107 104 104 107 109 112 118 121 125 129 130 128 125 126 127 128 129 128 128 131 132 130 130 130 129 129 129 129 129 128 126 123 116 109 106 104 99 93 89 86 79 72 69 67 61 56 60 67 67 65 63 62 59 59 57 48 42 41 38 39 52 64 58 49 45 42 41 41 37 36 39 39 35 31 26
113 106 99 100 107 107 111 119 116 109 109 110 109 113 115 115 115 118 123 128 128 127 126 126 128 130 130 130 130 130 131 131 132 132 132 132 134 133 132 129 125 122 119 114 109 110 107 99 95 92 87 82 76 69 68 62 49 48 58 61 60 64 71 72 68 63 56 47 41 39 39 45 57 69 69 59 50 46 44 42 42 45 47 46 42 37
90 95 93 97 102 105 116 125 122 115 112 109 109 113 118 119 119 121 125 126 125 126 127 127 127 128 130 132 133 132 131 133 136 136 134 134 134 132 129 126 124 122 118 114 111 108 101 95 96 92 84 82 80 74 71 68 58 53 55 54 47 43 47 59 69 68 62 51 40 41 44 40 38 49 70 73 58 46 43 42 44 49 51 50 48 46
89 107 113 116 118 126 140 141 134 125 121 116 114 118 122 122 121 123 127 128 128 130 130 127 124 125 129 132 134 133 132 134 137 136 131 128 129 130 129 126 123 120 120 120 117 112 109 107 103 92 82 78 81 82 78 71 64 59 59 62 60 45 29 29 45 58 59 55 47 41 41 43 40 41 46 53 56 51 43 37 35 39 43 45 46 45
72 112 140 139 132 141 148 144 133 123 122 121 120 121 123 125 126 128 130 130 130 131 130 129 129 130 132 133 134 134 134 136 137 133 127 126 130 131 130 128 129 131 130 122 114 113 117 113 100 89 81 72 69 74 81 83 80 74 63 58 69 73 53 35 33 38 40 46 52 45 37 40 45 42 38 38 40 44 45 35 27 27 27 29 34 37
Height
737 746 747 746 744 741 740 737 736 734 730 728 730 735 736 733 730 719 714 717 720 732 737 735 736 737 739 738 734 733 732 734 738 745 752 755 757 760 765 772 776 781 782 780 781 782 784 786 787 788 789 790 791 793 794 795 797 797 797 799 800 801 802 804 805 805 805 805 807 809 811 811 810 811 811 812 811 811 811 811 811 810 811 811 810 811
738 747 743 737 736 734 735 734 733 733 729 726 726 730 731 729 724 711 708 715 718 730 736 730 731 736 738 738 733 733 736 738 741 747 751 751 755 761 767 775 780 782 782 782 784 785 786 788 789 790 791 792 793 794 795 796 798 799 799 799 800 801 801 803 805 806 806 807 808 810 811 811 811 811 811 811 810 810 809 809 809 808 808 808 808 809
741 741 735 731 731 730 731 731 732 733 731 729 723 724 730 725 717 709 704 711 718 728 733 730 735 740 738 737 736 737 739 740 742 745 749 752 760 768 774 781 784 784 785 786 787 788 789 790 791 792 793 793 794 795 796 797 798 800 801 801 802 803 804 805 806 807 808 808 808 809 810 810 810 810 809 809 808 808 807 807 806 806 806 806 806 807
742 734 728 727 727 729 730 728 731 733 731 732 724 722 726 719 715 715 707 709 717 723 726 729 740 746 743 743 742 741 741 741 743 745 751 759 766 773 777 782 786 787 790 792 791 791 791 792 793 794 794 795 795 796 797 798 799 800 801 802 803 804 805 806 806 806 807 807 808 808 809 809 808 808 808 807 807 806 805 805 804 804 804 804 804 805
732 725 721 723 724 726 729 727 728 734 733 731 723 717 715 713 713 711 706 708 716 723 719 723 750 758 751 753 751 744 744 747 747 749 756 764 767 772 778 784 788 790 793 794 794 795 794 793 795 795 795 796 796 797 798 799 800 800 801 802 802 803 804 804 805 805 806 806 807 807 807 807 807 806 806 805 804 804 803 803 803 803 802 802 803 803
722 717 716 721 723 722 726 726 725 731 734 731 722 711 706 708 709 703 704 712 727 738 723 724 766 778 756 754 756 750 751 755 756 757 761 766 768 773 783 792 795 795 795 795 796 796 795 795 796 797 797 797 797 798 799 799 800 801 801 802 802 803 803 804 804 804 805 805 805 806 805 805 805 804 803 803 802 802 802 801 801 801 801 800 801 801
715 710 711 718 720 721 724 724 720 722 731 732 719 709 705 703 703 703 709 722 737 743 725 723 761 780 765 756 754 755 757 759 762 763 764 770 773 777 786 794 796 796 797 797 797 797 796 797 798 799 799 799 799 800 800 801 801 801 801 802 802 803 803 803 804 804 804 804 804 804 804 803 803 802 802 801 801 801 800 800 800 799 799 799 799 799
707 707 711 714 716 719 723 722 715 714 727 727 710 708 709 702 701 703 713 728 732 730 726 724 742 767 773 759 750 754 760 763 766 766 770 778 782 784 788 792 793 796 798 798 799 799 799 799 799 800 801 800 801 801 801 802 802 802 802 802 802 803 803 803 804 804 803 804 803 803 803 802 802 801 801 800 800 799 799 798 798 798 798 797 798 798
702 706 708 711 715 717 717 714 708 710 721 715 703 707 708 702 701 700 713 729 728 732 741 731 732 761 772 752 745 753 757 767 772 771 778 784 787 790 792 794 795 796 798 798 800 800 800 801 801 802 802 802 803 803 803 803 803 803 802 803 803 803 804 804 803 804 803 803 802 802 802 801 801 800 800 800 799 799 798 797 797 797 796 796 797 797
698 699 699 705 713 712 709 707 703 708 715 706 700 705 705 704 703 700 713 725 729 744 751 733 730 759 769 750 746 755 758 770 780 780 785 788 789 792 793 795 796 796 798 799 800 801 801 802 802 803 804 804 805 804 805 805 804 804 803 803 803 803 804 804 803 803 802 802 802 801 801 800 800 799 799 799 798 798 797 797 796 796 795 795 795 796
691 693 693 696 703 702 702 703 700 701 706 704 701 704 708 708 705 704 708 718 739 757 748 729 724 744 763 755 746 751 754 768 784 789 790 790 792 795 795 797 798 798 800 801 801 802 802 803 804 805 805 806 807 807 807 807 806 806 805 804 804 804 804 804 803 803 802 802 802 801 801 800 800 799 799 798 797 797 796 796 795 795 794 794 793 793
690 695 693 688 692 696 699 701 699 697 700 706 707 709 719 720 717 717 714 724 755 765 743 725 721 734 757 758 744 744 751 764 780 788 791 794 795 796 797 799 800 800 802 802 803 803 803 805 805 806 807 807 808 809 808 809 808 808 807 806 805 805 805 804 804 803 802 802 802 801 801 800 800 799 798 797 797 796 795 795 795 794 794 793 792 791
692 693 691 687 686 689 697 703 703 700 700 709 712 716 730 738 740 739 735 742 758 754 731 719 726 738 746 747 740 740 754 768 775 781 788 793 796 797 798 800 801 802 803 803 804 805 805 807 807 807 808 809 809 810 810 810 810 809 808 807 806 806 806 806 805 804 804 803 802 802 801 801 800 799 798 797 796 796 795 794 794 793 793 792 791 791
701 695 690 690 687 684 694 704 708 705 702 709 714 719 730 742 753 754 749 753 756 746 726 714 728 741 746 758 757 747 754 767 773 780 787 792 795 797 799 801 803 804 805 806 805 806 807 807 808 809 809 810 810 811 811 811 811 811 810 808 807 807 807 807 807 806 805 804 803 803 802 801 800 799 798 797 796 795 794 793 793 793 792 792 792 792
713 709 693 689 691 691 693 694 696 699 702 706 704 708 720 727 740 748 747 751 753 744 727 719 739 757 766 780 775 758 761 768 776 784 787 793 796 796 800 803 805 807 806 807 807 807 808 807 809 810 810 811 812 812 812 812 812 812 811 810 808 808 807 807 807 807 806 806 805 804 803 802 801 799 798 797 796 795 793 793 793 792 792 792 792 791
708 706 686 681 687 691 695 688 683 696 708 705 697 704 715 713 715 728 732 732 736 738 734 742 766 777 778 781 774 770 776 777 783 788 789 796 798 797 803 805 806 809 807 808 808 808 808 809 809 810 811 812 813 813 813 813 813 813 811 810 809 808 808 808 808 808 807 807 806 805 805 803 802 800 798 797 796 794 793 793 792 791 791 790 790 790
704 701 684 684 688 685 692 690 681 693 705 704 703 705 703 695 700 723 733 727 732 746 749 761 783 787 784 786 781 780 785 785 788 791 793 798 800 801 805 807 808 809 808 809 809 809 810 810 811 811 812 813 814 814 814 813 813 813 812 811 810 810 810 809 810 809 808 807 807 806 805 804 803 801 799 797 796 794 793 792 791 790 790 789 789 789
695 699 688 688 695 686 685 689 683 681 689 701 709 701 694 696 699 716 736 741 747 756 754 762 781 786 787 792 788 784 788 792 791 793 796 799 802 805 807 809 810 809 809 809 809 810 811 811 812 813 813 814 815 814 814 814 814 814 813 811 811 811 811 811 810 810 810 808 808 807 806 805 803 801 800 798 796 795 793 792 791 790 789 789 788 788
686 699 696 687 693 688 682 693 695 684 681 690 695 688 698 718 717 717 733 746 753 755 755 765 776 775 775 783 787 785 787 792 793 794 798 800 803 807 808 810 810 810 810 810 810 812 812 813 814 814 815 815 815 815 815 815 815 814 813 811 811 811 811 811 811 810 810 809 809 808 807 805 804 802 801 799 797 795 794 793 792 791 790 789 788 787
681 698 705 690 685 686 688 697 703 696 686 684 686 687 696 709 713 716 723 732 743 748 753 771 778 769 763 767 775 778 778 786 792 795 797 800 803 807 809 810 811 811 812 811 813 814 813 814 815 814 816 816 816 816 815 815 816 815 813 812 811 810 811 811 811 810 810 810 809 809 807 806 804 803 802 800 798 796 794 793 792 791 790 789 788 787
681 693 707 697 686 690 696 697 694 692 692 692 696 701 703 702 703 709 713 714 726 737 746 765 776 768 759 757 760 767 772 778 786 792 796 799 803 806 808 810 811 811 813 813 814 815 814 815 815 815 816 816 816 816 815 815 816 815 814 813 811 811 811 812 811 810 810 810 809 809 807 807 805 804 803 800 799 797 795 794 792 791 790 789 788 787
684 691 703 705 699 700 698 687 681 682 686 691 695 698 703 705 707 717 723 713 711 723 730 744 766 772 765 758 756 760 767 774 781 789 797 800 803 807 808 809 811 812 813 815 815 816 816 815 814 815 815 816 817 816 816 816 816 816 815 813 813 812 812 812 811 811 811 810 810 809 808 808 806 805 803 801 799 798 797 795 793 792 790 789 788 787
681 689 703 708 701 696 690 682 679 679 678 685 693 693 695 699 704 718 729 718 711 717 714 724 759 776 768 762 763 764 768 776 783 789 797 802 804 807 808 809 811 813 815 817 817 817 817 815 815 815 816 818 818 817 817 817 817 818 817 815 815 814 814 814 813 812 811 811 811 810 810 809 807 805 803 801 799 798 798 796 795 793 791 789 788 786
682 692 708 715 704 692 687 683 682 680 681 689 694 691 691 695 696 702 709 708 714 720 716 733 770 781 770 767 770 772 776 782 789 793 797 803 805 807 809 810 813 816 817 818 818 817 817 816 816 817 818 818 819 819 818 818 818 819 818 818 816 816 816 815 814 814 813 812 812 811 811 809 807 805 802 801 800 799 798 797 796 794 792 790 788 786
690 696 706 720 722 714 705 700 698 694 691 693 693 690 690 689 690 695 698 704 719 721 717 744 777 780 773 773 773 775 782 787 793 796 799 803 807 809 811 813 815 817 818 818 818 818 818 818 818 818 820 820 820 820 819 819 820 819 819 819 818 817 817 816 815 815 814 813 813 812 811 809 808 806 803 802 801 800 799 798 797 795 793 791 789 787
690 695 700 714 726 726 720 713 708 703 695 691 690 690 688 684 689 698 703 714 729 722 716 744 775 779 777 778 777 779 785 790 795 798 801 804 808 811 813 816 817 817 818 819 819 819 819 819 820 820 821 821 821 820 820 820 821 820 821 820 819 818 818 817 817 816 816 815 814 813 811 810 808 807 805 803 802 801 800 799 798 796 794 792 790 788
687 694 696 703 708 710 710 702 694 693 695 695 693 690 688 687 690 696 705 718 723 719 729 749 763 776 783 781 780 784 787 793 798 800 804 807 810 813 815 817 818 818 819 819 819 820 820 820 822 822 822 822 821 821 821 821 822 822 822 821 819 819 818 818 818 817 817 817 815 814 812 811 810 808 806 805 803 802 801 800 799 797 795 793 790 788
690 698 696 697 698 697 695 688 684 689 693 693 692 690 690 692 693 696 705 711 708 719 752 763 754 766 781 780 781 787 789 794 799 802 807 810 812 815 816 817 819 818 818 819 819 820 821 822 824 824 824 823 823 823 823 823 824 823 823 822 821 820 820 820 819 819 818 818 817 816 814 813 812 810 808 807 805 804 802 801 800 798 796 794 791 789
690 699 698 699 700 696 691 684 680 683 687 687 689 691 692 694 696 698 701 703 706 724 754 763 756 765 779 782 785 789 790 794 799 803 808 810 813 815 816 817 818 818 818 819 820 822 823 825 826 826 826 825 824 824 824 824 824 824 823 823 822 822 822 821 821 820 820 819 818 817 816 814 813 811 810 808 806 805 804 802 801 800 798 795 793 791
687 699 699 700 703 701 699 692 681 679 686 690 690 689 690 693 699 704 705 708 717 731 744 756 766 775 782 786 789 791 793 797 801 805 809 811 813 814 815 816 817 817 819 821 822 825 826 828 828 827 827 826 825 826 825 825 825 825 825 824 824 824 823 822 822 822 822 821 820 819 818 816 815 813 812 810 808 807 805 804 803 801 799 797 794 792
690 704 700 700 712 714 707 699 687 683 689 693 695 697 697 700 708 716 720 720 726 737 747 759 775 787 790 792 794 797 799 802 805 808 810 811 812 812 814 817 817 818 821 823 825 827 828 829 828 827 827 827 827 827 826 826 826 826 826 826 826 826 824 824 824 825 825 824 823 822 820 818 817 815 813 812 810 809 807 806 805 803 801 799 796 794
695 710 706 704 721 724 712 707 701 695 697 705 717 724 721 717 720 722 723 724 730 744 758 767 778 790 795 797 800 803 804 805 808 809 810 812 812 813 815 817 818 821 823 825 827 829 830 830 829 828 828 828 828 828 828 828 828 828 828 828 828 827 826 826 827 827 827 827 826 824 822 821 819 817 816 814 813 811 810 808 806 805 803 801 798 796
695 712 714 711 722 721 712 719 721 710 712 728 738 739 733 728 729 730 730 730 734 745 756 763 774 788 794 797 801 805 807 809 811 811 813 813 813 815 817 819 821 824 825 828 830 830 831 830 829 829 829 828 829 829 829 829 828 829 829 830 830 829 828 828 829 830 830 830 828 826 825 824 822 820 818 817 815 814 812 810 808 807 805 803 801 799
696 708 714 712 718 721 721 732 736 727 731 744 743 735 732 735 738 743 749 751 751 752 753 759 774 788 795 797 802 807 811 813 814 815 815 815 816 818 821 823 825 827 829 831 831 831 832 831 831 830 829 829 830 830 829 829 828 828 829 830 830 830 830 831 832 833 833 832 831 829 827 826 824 822 821 819 818 816 814 813 811 810 808 806 804 801
700 708 717 718 718 728 739 744 745 745 747 749 740 729 731 738 743 750 758 761 763 765 764 770 782 789 794 799 804 810 815 817 818 819 819 819 820 821 824 826 828 830 831 832 833 833 833 832 832 832 831 831 831 831 830 830 828 827 829 830 829 830 832 834 835 835 835 834 833 831 830 828 826 825 823 822 820 819 817 815 814 812 811 809 807 805
698 704 717 726 727 736 748 748 748 754 754 747 739 735 737 743 747 755 766 769 769 771 772 777 786 791 797 805 809 812 817 820 822 825 825 824 824 824 826 829 830 831 832 832 832 833 833 834 834 834 834 834 835 834 833 832 831 831 831 832 831 832 835 837 837 838 837 836 835 833 832 831 829 827 826 824 823 821 819 818 816 815 813 811 810 808
693 700 710 729 738 739 747 754 756 758 756 750 746 740 738 743 745 753 771 779 774 773 778 783 792 799 805 809 813 815 817 821 827 832 831 828 828 828 829 830 831 833 833 833 833 834 834 835 835 836 837 837 837 838 837 837 837 836 836 836 835 836 838 838 839 839 839 838 837 835 834 833 831 830 828 826 825 823 822 820 819 817 815 813 812 810
687 695 703 721 736 738 744 756 758 755 753 751 747 740 735 740 743 748 768 784 781 778 786 792 797 803 807 809 814 814 812 818 830 837 835 832 831 830 831 832 833 834 834 835 836 836 836 837 837 838 839 840 840 840 840 840 840 840 839 839 838 839 839 840 841 841 840 840 838 837 836 835 833 832 830 829 827 826 824 823 821 820 818 816 815 813
687 694 699 710 725 729 734 744 750 752 751 744 741 740 737 739 743 746 762 783 787 784 789 795 799 803 806 808 811 808 806 816 832 837 834 833 832 832 832 834 834 836 836 836 837 838 838 839 840 840 841 841 841 841 842 842 843 842 842 842 841 841 840 841 842 842 842 841 840 839 838 836 835 834 833 832 830 829 827 825 823 822 820 819 817 816
693 701 705 711 719 723 729 741 750 755 752 741 738 740 737 737 745 751 760 773 782 785 788 794 798 801 803 806 807 804 802 812 826 831 831 832 833 833 834 834 835 837 837 838 839 839 840 840 841 841 841 841 842 842 843 843 844 844 844 844 844 843 842 843 843 843 843 842 841 841 839 838 837 836 834 834 832 831 830 828 826 824 822 821 820 818
708 708 708 713 717 719 731 746 754 756 753 743 738 739 738 740 750 756 759 764 774 782 787 791 795 799 801 804 805 804 804 810 819 826 829 832 832 833 834 835 836 837 838 839 840 840 841 842 841 841 842 842 843 843 844 844 844 845 846 846 847 846 845 845 845 844 844 843 842 842 841 840 839 838 837 836 835 834 832 830 828 827 824 823 822 820
719 712 709 714 716 718 729 744 752 757 755 746 740 740 742 748 756 760 761 765 772 779 785 789 793 796 799 802 805 809 812 815 820 825 829 831 832 833 835 836 837 838 840 840 841 841 842 842 842 842 843 843 844 844 845 845 845 845 847 847 848 848 848 847 847 846 846 845 844 844 843 843 841 840 839 838 837 837 835 833 831 829 827 826 825 823
723 721 722 727 726 725 733 744 752 757 754 746 743 746 747 752 759 762 765 769 774 778 783 788 792 795 799 804 808 812 815 818 823 827 829 831 833 834 836 836 837 838 840 840 841 842 842 843 843 843 844 844 845 846 845 845 845 846 847 848 849 849 850 849 849 848 847 847 846 845 845 844 843 842 842 841 840 839 838 836 834 832 830 829 827 826
727 727 731 739 738 733 738 749 753 753 749 745 747 751 752 754 759 762 765 770 775 780 784 788 793 796 800 805 810 815 818 821 825 828 829 831 833 834 836 836 837 838 839 840 841 842 842 843 844 844 845 846 846 847 846 846 847 847 848 849 849 850 850 850 850 850 849 848 848 847 846 846 845 845 844 843 842 841 840 839 837 835 833 831 829 828
736 730 730 743 751 746 747 754 753 750 749 748 750 753 754 756 759 763 766 770 776 782 786 790 795 799 802 806 811 815 819 822 824 827 829 831 833 834 835 837 838 839 839 840 841 842 843 844 845 845 847 847 847 847 847 848 848 849 849 849 850 851 851 851 851 850 850 850 849 849 848 848 847 847 846 845 844 843 842 841 839 837 836 834 832 831
735 731 732 744 755 755 756 758 754 752 754 754 754 756 757 760 763 765 769 774 779 784 788 792 797 801 805 808 811 815 820 823 825 828 830 832 834 835 836 838 839 839 840 841 843 844 845 845 846 847 847 847 847 848 849 849 849 849 849 850 851 852 852 852 852 852 851 851 850 850 849 849 849 849 848 847 846 845 844 843 842 840 839 837 835 834
725 726 730 740 748 753 761 763 758 758 760 758 759 762 763 767 770 771 775 781 784 787 791 795 799 803 807 810 812 816 820 823 825 828 831 833 835 836 837 838 839 839 841 842 843 845 846 846 847 848 848 848 849 849 850 850 850 850 850 851 852 852 853 853 852 852 852 852 851 851 850 850 849 849 849 849 848 847 846 845 844 843 841 840 838 837
721 724 731 740 747 754 763 764 760 760 762 762 764 767 769 772 776 778 781 785 787 790 795 799 802 806 809 812 815 817 821 824 827 829 831 833 835 836 837 838 839 840 842 843 844 846 847 847 848 848 848 849 850 851 852 852 852 851 851 852 853 853 853 853 853 853 853 852 852 851 851 850 850 849 850 850 849 848 848 847 846 845 843 842 841 839
719 728 737 747 756 762 765 764 763 765 768 768 769 771 773 776 780 783 786 789 792 796 800 803 807 809 811 814 817 818 821 825 827 828 830 832 834 836 837 839 840 841 843 844 846 847 847 848 849 849 850 851 852 853 853 854 854 854 854 854 854 854 853 853 853 853 853 853 852 852 851 851 850 850 850 850 849 849 849 848 848 847 846 845 843 842
724 736 744 750 760 766 765 763 763 768 772 774 774 775 778 780 783 787 790 793 796 800 802 805 809 812 814 816 818 820 822 824 826 828 830 832 835 837 838 840 842 843 844 845 846 847 848 849 850 850 852 853 853 854 855 855 856 856 855 856 856 855 855 854 853 853 853 853 853 852 852 851 851 851 851 851 850 850 849 849 849 848 847 846 845 844
730 734 736 741 752 758 758 759 761 765 771 775 776 778 782 784 787 790 793 796 799 802 804 806 809 813 816 818 820 822 823 824 826 828 830 834 837 838 839 841 843 844 845 845 846 847 848 849 851 852 854 854 854 855 855 856 856 857 857 857 857 857 857 856 855 855 854 854 854 853 853 852 852 852 852 851 851 850 850 850 849 849 848 847 846 845